カタログに戻る

STARLINK-37234

運用中通信VLEO
NORAD 68535·PAYLOAD·🇺🇸 United States

打ち上げ Mar 30, 2026 から Cape Canaveral Space Force Station

Loading…

次のパス (今後24時間)

TLE

最新Source: CelesTrak SupGP

元期: Sep 15, 2026, 04:13 UTC

1 68535C 26068AD  26258.17618056  .00029981  00000+0  88556-3 0  2587
2 68535  53.1573 318.9548 0001258  93.5488 101.4116 15.34383954    14

AllMySatでSTARLINK-37234をリアルタイム追跡

Download on the App Store